Regional Weather Roundup
Issued by NWS Northern Indiana

Home | Current Version | Previous Version | Graphics & Text | Print | Product List | Glossary On
Versions: 1 2 3 4 5 6 7 8 9 10 11 12 13 14 15 16 17 18 19 20 21 22 23 24 25 26 27 28 29 30 31 32 33 34 35 36 37 38 39 40 41 42 43 44 45 46 47 48 49 50
000
ASUS43 KIWX 280410
RWRIWX

KIWX WEATHER ROUNDUP
NATIONAL WEATHER SERVICE NORTHERN INDIANA
1200 AM EDT MON JUL 28 2014

NOTE: "FAIR" INDICATES FEW OR NO CLOUDS BELOW 12,000 FEET WITH NO
SIGNIFICANT WEATHER AND/OR OBSTRUCTIONS TO VISIBILITY.

* THESE STATIONS ARE NOT UNDER NWS QUALITY CONTROL. THEY ALSO MAY NOT
  REPORT WEATHER SUCH AS PRECIPITATION OR FOG.

INZ001>027-280500-
NORTHERN INDIANA

CITY           SKY/WX    TMP DP  RH WIND       PRES   REMARKS
GARY*          RAIN      66  62  88 N16G25    29.89R
VALPARAISO     CLOUDY    64  60  87 N8G20     29.87R
MICHIGAN CITY* CLOUDY    63  59  88 N15G21    29.86S
LAPORTE*       CLOUDY    64  59  85 N15       29.86S
KNOX*          MOCLDY    64  57  79 NW8       29.85R
SOUTH BEND     CLOUDY    65  58  78 NW16      29.84R
GOSHEN         MOCLDY    65  58  78 NW10G23   29.81R
MONTICELLO*    MOCLDY    64  59  83 NW8       29.84S
LOGANSPORT*    PTCLDY    64  55  72 NW6       29.84S
ROCHESTER*     CLEAR     66  57  72 NW8       29.83S
WARSAW*        CLEAR     63  55  77 NW10      29.81S
ANGOLA*        CLEAR     64  55  72 W6        29.78R
FORT WAYNE     CLEAR     65  58  78 W10       29.79S
HUNTINGTON*    CLEAR     64  58  79 W6        29.80S
PERU/GRISSOM   MOCLDY    68  62  82 NW10      29.83S
MARION*        PTCLDY    62  59  88 W6        29.82F

$$
INZ028>050-280500-
CENTRAL INDIANA

CITY           SKY/WX    TMP DP  RH WIND       PRES   REMARKS
LAFAYETTE      PTCLDY    65  58  78 W7        29.85S
KOKOMO*        CLOUDY    66  48  52 NW9       29.83S
MUNCIE*        CLOUDY    67  57  70 W8        29.81F
INDIANAPOLIS   CLEAR     68  57  68 NW14G21   29.84F

$$
MIZ043>046-050>051-056>058-064>065-071>073-077>080-280500-
SOUTHWEST LOWER MICHIGAN

CITY           SKY/WX    TMP DP  RH WIND       PRES   REMARKS
BATTLE CREEK   CLOUDY    63  58  83 W13       29.79R
BENTON HARBOR  CLOUDY    62  58  86 NW8G23    29.82S
COLDWATER*     MOCLDY    65  61  85 NW6       29.78R
HILLSDALE*     PTCLDY    62  62  98 W5        29.76S
HOLLAND        MOCLDY    63  59  87 NW8       29.82R
GRAND RAPIDS   CLOUDY    65  63  93 N9        29.80R
KALAMAZOO      CLOUDY    63  57  81 NW12      29.80R
STURGIS*       MOCLDY    63  57  82 NW12      29.79R
THREE RIVERS*  CLOUDY    64  60  87 NW12G20   29.80R

$$
OHZ001>008-015>018-024>025-280500-
NORTHWEST OHIO

CITY           SKY/WX    TMP DP  RH WIND       PRES   REMARKS
WAUSEON*       MOCLDY    61  61 100 NW3       29.74R
DEFIANCE       CLEAR     63  59  87 CALM      29.75S
FINDLAY        CLOUDY    64  61  90 MISG      29.73S
TOLEDO EXPRESS CLOUDY    62  57  83 W6        29.72S
TOLEDO METCALF MOCLDY    64  57  78 W8        29.72S
LIMA           PTCLDY    66  63  90 W8        29.76S

$$
&&



USA.gov is the U.S. government's official web portal to all federal, state and local government web resources and services.